Date String (YYYY-MM-DD hh:mm:ss) UTC,Instrument flags,Ambient pressure (hPa),Sample flow (lpm),Bypass flow (lpm),Sample temperature (°C),Ambient temperature (°C),ASC tube jacket temperature (°C),LED temperature (°C),Box temperature (°C),Sample RH (%),Span deviation,Mass concentration (μg/m³),Mass concentration (μg/m³),Mass concentration (μg/m³)
DateTimeUTC,F1_M11,P_M11,Q1_M11,Q2_M11,T1_M11,T2_M11,T3_M11,T4_M11,T5_M11,U1_M11,ZSPAN_M11,X0_M11,X2_M11,X1_M11
2023-03-04 02:00:00,,0816.1,5.00,0.00,22.2,20.7,00.0,31.0,24.0,18.4,-000.8,0010.35,0005.65,0004.99
2023-03-04 02:01:00,,0816.1,5.00,0.00,22.2,20.7,00.0,31.0,24.0,18.4,-000.5,0010.31,0005.66,0005.01
2023-03-04 02:02:00,,0816.2,4.99,0.00,22.2,20.6,00.0,31.0,24.0,18.5,-000.9,0010.60,0005.67,0005.03
2023-03-04 02:03:00,,0816.2,5.00,0.00,22.2,20.6,00.0,31.0,23.9,18.5,-001.5,0010.24,0005.66,0005.05
2023-03-04 02:04:00,,0816.1,5.01,0.00,22.2,20.5,00.0,31.0,23.9,18.6,-001.4,0010.50,0005.70,0005.07
2023-03-04 02:05:00,,0816.2,4.99,0.00,22.2,20.4,00.0,31.0,23.8,18.6,-001.2,0010.59,0005.69,0005.08
2023-03-04 02:06:00,,0816.3,5.00,0.00,22.1,20.4,00.0,31.0,23.8,18.6,-001.5,0010.50,0005.70,0005.11
2023-03-04 02:07:00,,0816.3,5.01,0.00,22.1,20.4,00.0,30.9,23.8,18.6,-001.8,0010.62,0005.73,0005.14
2023-03-04 02:08:00,,0816.3,5.01,0.00,22.1,20.3,00.0,30.9,23.8,18.6,-001.7,0011.31,0005.77,0005.15
2023-03-04 02:09:00,,0816.3,4.99,0.00,22.1,20.4,00.0,30.9,23.9,18.6,-001.6,0011.71,0005.81,0005.18
2023-03-04 02:10:00,,0816.4,4.99,0.00,22.1,20.4,00.0,30.9,23.8,18.7,-001.3,0011.96,0005.87,0005.24
2023-03-04 02:11:00,,0816.4,5.00,0.00,22.1,20.4,00.0,30.9,23.8,18.7,-001.5,0011.91,0005.93,0005.29
2023-03-04 02:12:00,,0816.5,5.00,0.00,22.1,20.4,00.0,30.9,23.9,18.8,-001.5,0011.99,0006.00,0005.33
2023-03-04 02:13:00,,0816.4,5.01,0.00,22.1,20.4,00.0,30.9,23.9,18.8,-001.5,0011.94,0006.04,0005.39
2023-03-04 02:14:00,,0816.4,4.99,0.00,22.1,20.5,00.0,30.9,23.9,18.8,-001.3,0012.28,0006.10,0005.45
2023-03-04 02:15:00,,0816.6,4.99,0.00,22.1,20.5,00.0,30.9,23.9,18.9,-001.0,0012.23,0006.22,0005.56
2023-03-04 02:16:00,,0816.5,5.01,0.00,22.1,20.5,00.0,30.9,23.8,19.0,-001.5,0012.44,0006.37,0005.66
2023-03-04 02:17:00,,0816.4,5.00,0.00,22.0,20.4,00.0,30.9,23.8,19.1,-001.7,0012.61,0006.49,0005.76
2023-03-04 02:18:00,,0816.6,5.00,0.00,22.0,20.4,00.0,30.8,23.7,19.1,-001.6,0012.85,0006.61,0005.88
2023-03-04 02:19:00,,0816.4,4.98,0.00,22.0,20.4,00.0,30.8,23.8,19.1,-001.6,0012.57,0006.69,0005.98
2023-03-04 02:20:00,,0816.5,5.00,0.00,22.0,20.3,00.0,30.8,23.7,19.1,-001.7,0012.50,0006.77,0006.07
2023-03-04 02:21:00,,0816.5,4.99,0.00,22.0,20.3,00.0,30.8,23.7,19.0,-002.0,0012.32,0006.85,0006.15
2023-03-04 02:22:00,,0816.4,5.00,0.00,22.0,20.3,00.0,30.8,23.7,19.1,-002.3,0012.42,0006.97,0006.26
2023-03-04 02:23:00,,0816.5,5.01,0.00,22.0,20.2,00.0,30.8,23.7,19.1,-002.5,0012.46,0007.06,0006.39
2023-03-04 02:24:00,,0816.4,5.01,0.00,22.0,20.8,00.0,30.8,23.8,19.1,-002.5,0012.42,0007.21,0006.51
2023-03-04 02:25:00,,0816.4,4.97,0.00,22.1,22.0,00.0,30.8,24.1,19.0,-002.5,0012.28,0007.32,0006.61
2023-03-04 02:26:00,,0816.5,4.99,0.00,22.2,22.7,00.0,30.8,24.3,18.9,-002.7,0012.31,0007.34,0006.67
2023-03-04 02:27:00,,0816.4,4.98,0.00,22.3,22.4,00.0,30.8,24.3,18.8,-002.7,0012.46,0007.36,0006.72
2023-03-04 02:28:00,,0816.4,5.03,0.00,22.3,22.1,00.0,30.9,24.2,18.7,-002.6,0012.46,0007.36,0006.77
2023-03-04 02:29:00,,0816.4,4.99,0.00,22.3,21.8,00.0,30.9,24.2,18.6,-002.5,0012.93,0007.45,0006.83
2023-03-04 02:30:00,,0816.7,4.99,0.00,22.3,21.5,00.0,30.9,24.1,18.6,-002.2,0012.69,0007.52,0006.90
2023-03-04 02:31:00,,0816.5,5.00,0.00,22.3,21.3,00.0,30.9,24.1,18.7,-002.1,0012.59,0007.62,0006.99
2023-03-04 02:32:00,,0816.5,5.00,0.00,22.3,21.1,00.0,31.0,24.0,18.7,-001.9,0012.68,0007.68,0007.07
2023-03-04 02:33:00,,0816.4,4.99,0.00,22.3,21.0,00.0,31.0,24.0,18.7,-001.6,0013.09,0007.72,0007.12
2023-03-04 02:34:00,,0816.4,5.00,0.00,22.3,20.8,00.0,31.0,23.9,18.7,-001.4,0013.18,0007.75,0007.15
2023-03-04 02:35:00,,0816.4,5.02,0.00,22.2,20.7,00.0,31.0,23.9,18.8,-001.3,0013.57,0007.80,0007.17
2023-03-04 02:36:00,,0816.5,5.00,0.00,22.2,20.6,00.0,31.0,23.9,18.8,-001.4,0014.03,0007.84,0007.21
2023-03-04 02:37:00,,0816.4,5.00,0.00,22.2,20.5,00.0,31.0,23.9,18.8,-001.4,0013.95,0007.88,0007.27
2023-03-04 02:38:00,,0816.4,5.00,0.00,22.2,20.4,00.0,30.9,23.8,18.8,-001.3,0013.81,0007.93,0007.33
2023-03-04 02:39:00,,0816.6,5.00,0.00,22.1,20.3,00.0,30.9,23.8,18.9,-001.1,0013.86,0007.95,0007.36
2023-03-04 02:40:00,,0816.5,5.01,0.00,22.1,20.2,00.0,30.9,23.7,18.9,-001.0,0013.28,0007.89,0007.35
2023-03-04 02:41:00,,0816.5,4.99,0.00,22.1,20.2,00.0,30.9,23.7,18.9,-001.0,0013.23,0007.85,0007.33
2023-03-04 02:42:00,,0816.7,5.01,0.00,22.0,20.3,00.0,30.9,23.7,19.0,-001.1,0013.16,0007.85,0007.32
2023-03-04 02:43:00,,0816.6,5.01,0.00,22.1,21.4,00.0,30.9,24.0,18.9,-001.3,0013.27,0007.87,0007.31
2023-03-04 02:44:00,,0817.1,5.01,0.00,22.2,22.5,00.0,30.9,24.2,18.7,-001.6,0013.18,0007.90,0007.31
2023-03-04 02:45:00,,0817.1,5.00,0.00,22.3,22.8,00.0,30.9,24.3,18.6,-001.7,0013.20,0007.92,0007.31
2023-03-04 02:46:00,,0816.8,4.99,0.00,22.4,22.4,00.0,31.0,24.3,18.5,-001.8,0013.00,0007.90,0007.33
2023-03-04 02:47:00,,0816.8,5.02,0.00,22.4,22.1,00.0,31.0,24.3,18.3,-001.5,0012.84,0007.88,0007.34
2023-03-04 02:48:00,,0816.8,5.01,0.00,22.4,21.8,00.0,31.0,24.2,18.1,-001.5,0012.72,0007.83,0007.29
2023-03-04 02:49:00,,0816.8,5.00,0.00,22.4,21.6,00.0,31.0,24.2,18.1,-001.7,0012.44,0007.77,0007.23
2023-03-04 02:50:00,,0816.9,5.01,0.00,22.4,21.4,00.0,31.1,24.1,17.9,-001.8,0012.20,0007.77,0007.21
2023-03-04 02:51:00,,0816.9,4.99,0.00,22.4,21.2,00.0,31.1,24.1,17.9,-002.3,0012.30,0007.79,0007.20
2023-03-04 02:52:00,,0817.0,4.99,0.00,22.4,21.1,00.0,31.1,24.1,18.0,-002.5,0012.44,0007.82,0007.20
2023-03-04 02:53:00,,0816.7,5.01,0.00,22.4,21.1,00.0,31.1,24.1,18.1,-002.5,0012.54,0007.78,0007.18
2023-03-04 02:54:00,,0816.7,5.00,0.00,22.3,21.0,00.0,31.1,24.1,18.2,-002.5,0012.82,0007.75,0007.16
2023-03-04 02:55:00,,0816.6,5.00,0.00,22.3,20.9,00.0,31.1,24.1,18.3,-002.3,0012.90,0007.69,0007.15
2023-03-04 02:56:00,,0817.1,5.00,0.00,22.3,20.8,00.0,31.1,24.0,18.2,-002.3,0013.55,0007.66,0007.12
2023-03-04 02:57:00,,0817.2,5.00,0.00,22.3,20.8,00.0,31.1,24.0,18.1,-002.2,0013.53,0007.65,0007.10
2023-03-04 02:58:00,,0816.9,5.01,0.00,22.3,20.7,00.0,31.1,24.0,18.1,-002.4,0013.15,0007.63,0007.06
2023-03-04 02:59:00,,0817.0,4.99,0.00,22.3,20.7,00.0,31.1,24.0,18.1,-002.2,0013.75,0007.66,0007.08
